Time,TemperatureF,DewpointF,PressureIn,WindDirection,WindDirectionDegrees,WindSpeedMPH,WindSpeedGustMPH,Humidity,HourlyPrecipIn,Conditions,Clouds,dailyrainin,SoftwareType,DateUTC
2013-01-15 00:00:00,44.6,35.4,30.26,North,354,6.0,6.0,70,0.00,,,0.00,Wunderground v.1.15,2013-01-15 05:00:00,
2013-01-15 00:01:00,44.5,35.7,30.25,NNW,347,6.0,6.0,71,0.00,,,0.00,Wunderground v.1.15,2013-01-15 05:01:00,
2013-01-15 00:02:00,44.4,35.6,30.25,NNW,330,6.0,8.0,71,0.00,,,0.00,Wunderground v.1.15,2013-01-15 05:02:00,
2013-01-15 00:05:00,44.2,35.7,30.25,WNW,297,6.0,8.0,72,0.00,,,0.00,Wunderground v.1.15,2013-01-15 05:05:00,
2013-01-15 00:10:00,43.7,35.6,30.25,North,359,6.0,6.0,73,0.00,,,0.00,Wunderground v.1.15,2013-01-15 05:10:00,
2013-01-15 00:16:00,43.2,35.8,30.26,WNW,296,6.0,6.0,75,0.00,,,0.00,Wunderground v.1.15,2013-01-15 05:16:00,
2013-01-15 00:22:00,42.9,35.9,30.26,North,352,4.0,5.0,76,0.00,,,0.00,Wunderground v.1.15,2013-01-15 05:22:00,
2013-01-15 00:28:00,42.6,35.9,30.26,WNW,290,4.0,6.0,77,0.00,,,0.00,Wunderground v.1.15,2013-01-15 05:28:00,
2013-01-15 00:34:00,42.3,36.3,30.26,WNW,303,5.0,11.0,79,0.00,,,0.00,Wunderground v.1.15,2013-01-15 05:34:00,
2013-01-15 00:40:00,42.0,36.3,30.25,NNW,341,5.0,11.0,80,0.00,,,0.00,Wunderground v.1.15,2013-01-15 05:40:00,
2013-01-15 00:46:00,41.8,36.7,30.25,North,4,4.0,11.0,82,0.00,,,0.01,Wunderground v.1.15,2013-01-15 05:46:00,
2013-01-15 00:52:00,41.5,37.0,30.26,NW,318,3.0,11.0,84,0.00,,,0.01,Wunderground v.1.15,2013-01-15 05:52:00,
2013-01-15 00:57:00,41.3,37.1,30.27,NW,315,3.0,11.0,85,0.00,,,0.01,Wunderground v.1.15,2013-01-15 05:57:00,
2013-01-15 01:03:00,41.2,37.0,30.29,WNW,285,2.0,3.0,85,0.00,,,0.01,Wunderground v.1.15,2013-01-15 06:03:00,
2013-01-15 01:09:00,41.1,36.9,30.29,NNW,338,2.0,3.0,85,0.00,,,0.01,Wunderground v.1.15,2013-01-15 06:09:00,
2013-01-15 01:15:00,41.0,37.1,30.29,NW,311,1.0,2.0,86,0.00,,,0.02,Wunderground v.1.15,2013-01-15 06:15:00,
2013-01-15 01:21:00,41.0,37.4,30.28,NNE,15,0.0,1.0,87,0.00,,,0.02,Wunderground v.1.15,2013-01-15 06:21:00,
2013-01-15 01:27:00,40.9,37.3,30.29,NW,307,1.0,1.0,87,0.05,,,0.03,Wunderground v.1.15,2013-01-15 06:27:00,
2013-01-15 01:33:00,40.7,37.1,30.29,NNW,330,2.0,10.0,87,0.05,,,0.03,Wunderground v.1.15,2013-01-15 06:33:00,
2013-01-15 01:38:00,40.7,37.1,30.29,NNE,32,3.0,10.0,87,0.05,,,0.03,Wunderground v.1.15,2013-01-15 06:38:00,
2013-01-15 01:44:00,40.7,37.4,30.29,North,1,3.0,10.0,88,0.04,,,0.04,Wunderground v.1.15,2013-01-15 06:44:00,
2013-01-15 01:50:00,40.5,37.2,30.29,North,1,2.0,10.0,88,0.08,,,0.05,Wunderground v.1.15,2013-01-15 06:50:00,
2013-01-15 01:56:00,40.4,37.4,30.29,WNW,300,3.0,10.0,89,0.08,,,0.05,Wunderground v.1.15,2013-01-15 06:56:00,
2013-01-15 02:01:00,40.3,37.3,30.28,North,360,2.0,2.0,89,0.05,,,0.05,Wunderground v.1.15,2013-01-15 07:01:00,
2013-01-15 02:07:00,40.2,37.2,30.28,NNE,23,1.0,2.0,89,0.04,,,0.06,Wunderground v.1.15,2013-01-15 07:07:00,
2013-01-15 02:12:00,40.1,37.4,30.27,NNE,31,1.0,2.0,90,0.04,,,0.06,Wunderground v.1.15,2013-01-15 07:12:00,
2013-01-15 02:18:00,40.1,37.7,30.27,NNE,30,1.0,2.0,91,0.04,,,0.06,Wunderground v.1.15,2013-01-15 07:18:00,
2013-01-15 02:24:00,40.0,37.6,30.26,NNE,23,1.0,1.0,91,0.04,,,0.07,Wunderground v.1.15,2013-01-15 07:24:00,
2013-01-15 02:30:00,39.9,37.5,30.25,NNE,19,1.0,1.0,91,0.04,,,0.07,Wunderground v.1.15,2013-01-15 07:30:00,
2013-01-15 02:36:00,39.8,37.4,30.26,North,359,1.0,8.0,91,0.05,,,0.08,Wunderground v.1.15,2013-01-15 07:36:00,
2013-01-15 02:42:00,39.7,37.3,30.26,NNE,27,2.0,8.0,91,0.08,,,0.09,Wunderground v.1.15,2013-01-15 07:42:00,
2013-01-15 02:48:00,39.6,36.9,30.26,North,9,1.0,8.0,90,0.07,,,0.09,Wunderground v.1.15,2013-01-15 07:48:00,
2013-01-15 02:54:00,39.5,36.8,30.26,NNW,347,1.0,8.0,90,0.06,,,0.10,Wunderground v.1.15,2013-01-15 07:54:00,
2013-01-15 03:00:00,39.4,36.7,30.26,North,1,2.0,2.0,90,0.08,,,0.11,Wunderground v.1.15,2013-01-15 08:00:00,
2013-01-15 03:06:00,39.3,36.6,30.26,NNW,348,2.0,4.0,90,0.07,,,0.11,Wunderground v.1.15,2013-01-15 08:06:00,
2013-01-15 03:12:00,39.2,36.5,30.26,North,4,3.0,3.0,90,0.07,,,0.12,Wunderground v.1.15,2013-01-15 08:12:00,
2013-01-15 03:18:00,39.1,36.7,30.25,North,357,2.0,3.0,91,0.07,,,0.13,Wunderground v.1.15,2013-01-15 08:18:00,
2013-01-15 03:24:00,39.0,36.6,30.25,NW,325,2.0,4.0,91,0.06,,,0.13,Wunderground v.1.15,2013-01-15 08:24:00,
2013-01-15 03:29:00,38.9,36.5,30.25,North,5,2.0,4.0,91,0.05,,,0.14,Wunderground v.1.15,2013-01-15 08:29:00,
2013-01-15 03:35:00,38.9,36.5,30.24,North,349,1.0,4.0,91,0.05,,,0.14,Wunderground v.1.15,2013-01-15 08:35:00,
2013-01-15 03:41:00,38.8,36.7,30.25,NW,322,1.0,4.0,92,0.04,,,0.14,Wunderground v.1.15,2013-01-15 08:41:00,
2013-01-15 03:47:00,38.8,36.7,30.26,North,356,1.0,4.0,92,0.00,,,0.15,Wunderground v.1.15,2013-01-15 08:47:00,
2013-01-15 03:53:00,38.8,36.7,30.24,NE,38,1.0,4.0,92,0.00,,,0.15,Wunderground v.1.15,2013-01-15 08:53:00,
2013-01-15 03:59:00,38.8,36.7,30.26,North,349,1.0,4.0,92,0.06,,,0.16,Wunderground v.1.15,2013-01-15 08:59:00,
2013-01-15 04:05:00,38.7,36.6,30.25,North,359,2.0,3.0,92,0.10,,,0.17,Wunderground v.1.15,2013-01-15 09:05:00,
2013-01-15 04:11:00,38.6,36.5,30.28,NW,326,3.0,4.0,92,0.05,,,0.17,Wunderground v.1.15,2013-01-15 09:11:00,
2013-01-15 04:17:00,38.5,36.1,30.27,NW,326,4.0,7.0,91,0.04,,,0.18,Wunderground v.1.15,2013-01-15 09:17:00,
2013-01-15 04:23:00,38.4,36.0,30.25,NNE,32,3.0,4.0,91,0.07,,,0.19,Wunderground v.1.15,2013-01-15 09:23:00,
2013-01-15 04:28:00,38.4,36.3,30.24,ENE,69,2.0,4.0,92,0.07,,,0.19,Wunderground v.1.15,2013-01-15 09:28:00,
2013-01-15 04:34:00,38.3,36.2,30.24,North,359,1.0,5.0,92,0.05,,,0.19,Wunderground v.1.15,2013-01-15 09:34:00,
2013-01-15 04:40:00,38.2,36.1,30.21,ENE,72,1.0,5.0,92,0.00,,,0.19,Wunderground v.1.15,2013-01-15 09:40:00,
2013-01-15 04:46:00,38.1,36.0,30.24,NNW,347,1.0,5.0,92,0.00,,,0.20,Wunderground v.1.15,2013-01-15 09:46:00,
2013-01-15 04:52:00,38.0,35.9,30.23,North,8,2.0,5.0,92,0.00,,,0.20,Wunderground v.1.15,2013-01-15 09:52:00,
2013-01-15 04:58:00,38.0,35.9,30.23,North,11,2.0,5.0,92,0.00,,,0.20,Wunderground v.1.15,2013-01-15 09:58:00,
2013-01-15 05:04:00,37.9,35.8,30.22,NNE,30,1.0,2.0,92,0.00,,,0.20,Wunderground v.1.15,2013-01-15 10:04:00,
2013-01-15 05:10:00,37.9,35.8,30.22,ENE,62,1.0,1.0,92,0.00,,,0.20,Wunderground v.1.15,2013-01-15 10:10:00,
2013-01-15 05:15:00,37.9,35.8,30.23,North,359,1.0,3.0,92,0.00,,,0.20,Wunderground v.1.15,2013-01-15 10:15:00,
2013-01-15 05:21:00,37.8,35.7,30.23,NNW,345,1.0,1.0,92,0.00,,,0.20,Wunderground v.1.15,2013-01-15 10:21:00,
2013-01-15 05:27:00,37.8,35.7,30.23,NNE,32,1.0,3.0,92,0.00,,,0.20,Wunderground v.1.15,2013-01-15 10:27:00,
2013-01-15 05:33:00,37.8,35.7,30.24,NE,46,1.0,6.0,92,0.00,,,0.20,Wunderground v.1.15,2013-01-15 10:33:00,
2013-01-15 05:39:00,37.8,36.0,30.24,NNW,346,1.0,6.0,93,0.00,,,0.20,Wunderground v.1.15,2013-01-15 10:39:00,
2013-01-15 05:45:00,37.8,36.0,30.24,North,1,1.0,6.0,93,0.00,,,0.21,Wunderground v.1.15,2013-01-15 10:45:00,
2013-01-15 05:51:00,37.8,36.0,30.24,North,360,1.0,3.0,93,0.00,,,0.21,Wunderground v.1.15,2013-01-15 10:51:00,
2013-01-15 05:57:00,37.8,35.7,30.25,North,349,1.0,6.0,92,0.00,,,0.21,Wunderground v.1.15,2013-01-15 10:57:00,
2013-01-15 06:04:00,37.8,36.0,30.25,NNW,331,1.0,1.0,93,0.00,,,0.21,Wunderground v.1.15,2013-01-15 11:04:00,
2013-01-15 06:09:00,37.8,36.0,30.25,North,1,1.0,1.0,93,0.00,,,0.21,Wunderground v.1.15,2013-01-15 11:09:00,
2013-01-15 06:15:00,37.8,35.7,30.25,NNE,25,0.0,3.0,92,0.00,,,0.21,Wunderground v.1.15,2013-01-15 11:15:00,
2013-01-15 06:21:00,37.8,35.7,30.26,NNW,347,1.0,1.0,92,0.00,,,0.21,Wunderground v.1.15,2013-01-15 11:21:00,
2013-01-15 06:27:00,37.8,35.7,30.26,North,360,1.0,2.0,92,0.00,,,0.21,Wunderground v.1.15,2013-01-15 11:27:00,
2013-01-15 06:33:00,37.9,35.8,30.25,NNW,335,1.0,4.0,92,0.00,,,0.21,Wunderground v.1.15,2013-01-15 11:33:00,
2013-01-15 06:39:00,37.8,35.7,30.26,ENE,70,0.0,4.0,92,0.00,,,0.21,Wunderground v.1.15,2013-01-15 11:39:00,
2013-01-15 06:45:00,37.8,35.7,30.26,ENE,70,0.0,4.0,92,0.00,,,0.21,Wunderground v.1.15,2013-01-15 11:45:00,
2013-01-15 06:51:00,37.9,35.8,30.26,ENE,70,0.0,4.0,92,0.00,,,0.21,Wunderground v.1.15,2013-01-15 11:51:00,
2013-01-15 06:57:00,37.8,36.0,30.26,ENE,70,0.0,4.0,93,0.00,,,0.21,Wunderground v.1.15,2013-01-15 11:57:00,
2013-01-15 07:03:00,37.9,36.1,30.27,NNW,347,0.0,1.0,93,0.00,,,0.21,Wunderground v.1.15,2013-01-15 12:03:00,
2013-01-15 07:09:00,37.8,36.0,30.27,NNW,347,0.0,1.0,93,0.00,,,0.21,Wunderground v.1.15,2013-01-15 12:09:00,
2013-01-15 07:15:00,37.8,36.0,30.28,NNW,347,0.0,1.0,93,0.00,,,0.21,Wunderground v.1.15,2013-01-15 12:15:00,
2013-01-15 07:20:00,37.9,36.1,30.28,NNW,347,0.0,1.0,93,0.00,,,0.21,Wunderground v.1.15,2013-01-15 12:20:00,
2013-01-15 07:26:00,37.9,36.1,30.29,NNW,335,1.0,1.0,93,0.00,,,0.21,Wunderground v.1.15,2013-01-15 12:26:00,
2013-01-15 07:32:00,37.9,36.1,30.29,North,349,1.0,3.0,93,0.00,,,0.21,Wunderground v.1.15,2013-01-15 12:32:00,
2013-01-15 07:38:00,38.0,35.9,30.29,NW,322,1.0,3.0,92,0.00,,,0.21,Wunderground v.1.15,2013-01-15 12:38:00,
2013-01-15 07:44:00,38.1,36.0,30.28,North,356,1.0,3.0,92,0.00,,,0.21,Wunderground v.1.15,2013-01-15 12:44:00,
2013-01-15 07:50:00,38.2,36.1,30.29,NW,322,1.0,1.0,92,0.00,,,0.21,Wunderground v.1.15,2013-01-15 12:50:00,
2013-01-15 07:56:00,38.2,36.1,30.30,NNW,332,1.0,3.0,92,0.00,,,0.21,Wunderground v.1.15,2013-01-15 12:56:00,
2013-01-15 08:02:00,38.2,36.1,30.30,North,356,1.0,1.0,92,0.00,,,0.21,Wunderground v.1.15,2013-01-15 13:02:00,
2013-01-15 08:07:00,38.2,36.1,30.30,NNW,333,1.0,2.0,92,0.00,,,0.21,Wunderground v.1.15,2013-01-15 13:07:00,
2013-01-15 08:13:00,38.3,35.9,30.30,North,349,2.0,3.0,91,0.00,,,0.21,Wunderground v.1.15,2013-01-15 13:13:00,
2013-01-15 08:19:00,38.3,35.9,30.30,North,352,2.0,4.0,91,0.00,,,0.21,Wunderground v.1.15,2013-01-15 13:19:00,
2013-01-15 08:25:00,38.4,36.0,30.31,North,359,1.0,2.0,91,0.00,,,0.21,Wunderground v.1.15,2013-01-15 13:25:00,
2013-01-15 08:31:00,38.4,36.0,30.31,North,359,1.0,4.0,91,0.00,,,0.21,Wunderground v.1.15,2013-01-15 13:31:00,
2013-01-15 08:37:00,38.4,35.7,30.31,North,359,2.0,4.0,90,0.00,,,0.21,Wunderground v.1.15,2013-01-15 13:37:00,
2013-01-15 08:43:00,38.4,35.7,30.30,NW,324,2.0,4.0,90,0.00,,,0.21,Wunderground v.1.15,2013-01-15 13:43:00,
2013-01-15 08:48:00,38.4,35.7,30.31,North,349,1.0,4.0,90,0.00,,,0.21,Wunderground v.1.15,2013-01-15 13:48:00,
2013-01-15 08:54:00,38.4,35.4,30.31,NW,311,2.0,4.0,89,0.00,,,0.21,Wunderground v.1.15,2013-01-15 13:54:00,
2013-01-15 09:00:00,38.4,35.4,30.31,NW,325,2.0,2.0,89,0.00,,,0.21,Wunderground v.1.15,2013-01-15 14:00:00,
2013-01-15 09:06:00,38.5,35.3,30.31,North,1,3.0,4.0,88,0.00,,,0.21,Wunderground v.1.15,2013-01-15 14:06:00,
2013-01-15 09:12:00,38.6,34.8,30.31,NNE,18,3.0,3.0,86,0.00,,,0.21,Wunderground v.1.15,2013-01-15 14:12:00,
2013-01-15 09:18:00,38.6,35.1,30.30,North,360,3.0,5.0,87,0.00,,,0.21,Wunderground v.1.15,2013-01-15 14:18:00,
2013-01-15 09:24:00,38.7,34.9,30.31,North,360,3.0,7.0,86,0.00,,,0.21,Wunderground v.1.15,2013-01-15 14:24:00,
2013-01-15 09:30:00,38.7,34.6,30.31,NNW,338,4.0,4.0,85,0.00,,,0.21,Wunderground v.1.15,2013-01-15 14:30:00,
2013-01-15 09:36:00,38.8,34.4,30.31,North,359,4.0,5.0,84,0.00,,,0.21,Wunderground v.1.15,2013-01-15 14:36:00,
2013-01-15 09:42:00,38.8,34.7,30.31,NW,318,4.0,5.0,85,0.00,,,0.21,Wunderground v.1.15,2013-01-15 14:42:00,
2013-01-15 09:47:00,38.9,34.5,30.31,NW,321,3.0,5.0,84,0.00,,,0.21,Wunderground v.1.15,2013-01-15 14:47:00,
2013-01-15 09:53:00,38.9,34.5,30.31,North,351,3.0,5.0,84,0.00,,,0.21,Wunderground v.1.15,2013-01-15 14:53:00,
2013-01-15 09:59:00,39.0,34.6,30.32,North,354,3.0,6.0,84,0.00,,,0.21,Wunderground v.1.15,2013-01-15 14:59:00,
2013-01-15 10:05:00,39.0,34.0,30.32,North,359,3.0,4.0,82,0.00,,,0.21,Wunderground v.1.15,2013-01-15 15:05:00,
2013-01-15 10:11:00,39.1,34.1,30.31,NNE,21,3.0,3.0,82,0.00,,,0.21,Wunderground v.1.15,2013-01-15 15:11:00,
2013-01-15 10:17:00,39.1,33.8,30.31,NE,35,3.0,5.0,81,0.00,,,0.21,Wunderground v.1.15,2013-01-15 15:17:00,
2013-01-15 10:23:00,39.2,34.2,30.31,NNW,332,4.0,5.0,82,0.00,,,0.21,Wunderground v.1.15,2013-01-15 15:23:00,
2013-01-15 10:29:00,39.4,34.4,30.32,North,1,3.0,5.0,82,0.00,,,0.21,Wunderground v.1.15,2013-01-15 15:29:00,
2013-01-15 10:35:00,39.6,34.2,30.31,West,279,3.0,8.0,81,0.00,,,0.21,Wunderground v.1.15,2013-01-15 15:35:00,
2013-01-15 10:41:00,39.5,33.5,30.31,NW,321,4.0,8.0,79,0.00,,,0.21,Wunderground v.1.15,2013-01-15 15:41:00,
2013-01-15 10:46:00,39.6,34.6,30.31,NNW,332,4.0,8.0,82,0.00,,,0.21,Wunderground v.1.15,2013-01-15 15:46:00,
2013-01-15 10:52:00,39.6,33.9,30.31,North,360,4.0,8.0,80,0.00,,,0.21,Wunderground v.1.15,2013-01-15 15:52:00,
2013-01-15 10:58:00,39.7,34.0,30.29,North,359,3.0,8.0,80,0.00,,,0.21,Wunderground v.1.15,2013-01-15 15:58:00,
2013-01-15 11:04:00,39.6,33.6,30.30,NNW,343,3.0,5.0,79,0.00,,,0.21,Wunderground v.1.15,2013-01-15 16:04:00,
2013-01-15 11:10:00,39.5,33.5,30.30,North,360,4.0,4.0,79,0.00,,,0.21,Wunderground v.1.15,2013-01-15 16:10:00,
2013-01-15 11:16:00,39.4,33.1,30.29,NNW,340,4.0,7.0,78,0.00,,,0.21,Wunderground v.1.15,2013-01-15 16:16:00,
2013-01-15 11:22:00,39.5,33.5,30.29,WNW,300,4.0,7.0,79,0.00,,,0.21,Wunderground v.1.15,2013-01-15 16:22:00,
2013-01-15 11:27:00,39.6,33.6,30.29,NNE,25,4.0,8.0,79,0.00,,,0.21,Wunderground v.1.15,2013-01-15 16:27:00,
2013-01-15 11:33:00,39.6,33.3,30.29,NNE,22,4.0,8.0,78,0.00,,,0.21,Wunderground v.1.15,2013-01-15 16:33:00,
2013-01-15 11:39:00,39.7,33.7,30.28,North,8,4.0,8.0,79,0.00,,,0.21,Wunderground v.1.15,2013-01-15 16:39:00,
2013-01-15 11:45:00,39.7,33.4,30.28,NNW,339,4.0,8.0,78,0.00,,,0.21,Wunderground v.1.15,2013-01-15 16:45:00,
2013-01-15 11:51:00,39.6,33.6,30.27,NNW,338,5.0,8.0,79,0.00,,,0.21,Wunderground v.1.15,2013-01-15 16:51:00,
2013-01-15 11:57:00,39.7,33.7,30.28,NNE,25,4.0,8.0,79,0.00,,,0.21,Wunderground v.1.15,2013-01-15 16:57:00,
2013-01-15 12:03:00,39.7,34.0,30.28,NNE,15,4.0,4.0,80,0.00,,,0.21,Wunderground v.1.15,2013-01-15 17:03:00,
2013-01-15 12:09:00,39.9,34.5,30.28,NNE,18,3.0,6.0,81,0.00,,,0.21,Wunderground v.1.15,2013-01-15 17:09:00,
2013-01-15 12:15:00,40.0,34.0,30.28,North,11,3.0,6.0,79,0.00,,,0.21,Wunderground v.1.15,2013-01-15 17:15:00,
2013-01-15 12:21:00,39.9,33.9,30.28,North,350,4.0,6.0,79,0.00,,,0.21,Wunderground v.1.15,2013-01-15 17:21:00,
2013-01-15 12:26:00,39.9,34.2,30.28,North,349,4.0,6.0,80,0.00,,,0.21,Wunderground v.1.15,2013-01-15 17:26:00,
2013-01-15 12:32:00,40.0,34.6,30.28,NNE,18,3.0,12.0,81,0.00,,,0.21,Wunderground v.1.15,2013-01-15 17:32:00,
2013-01-15 12:38:00,40.2,34.5,30.27,North,354,2.0,12.0,80,0.00,,,0.21,Wunderground v.1.15,2013-01-15 17:38:00,
2013-01-15 12:44:00,40.4,35.0,30.28,North,9,3.0,12.0,81,0.00,,,0.21,Wunderground v.1.15,2013-01-15 17:44:00,
2013-01-15 12:50:00,40.4,34.4,30.28,NNE,16,3.0,12.0,79,0.00,,,0.21,Wunderground v.1.15,2013-01-15 17:50:00,
2013-01-15 12:56:00,40.3,34.6,30.27,NE,41,3.0,12.0,80,0.00,,,0.21,Wunderground v.1.15,2013-01-15 17:56:00,
2013-01-15 13:02:00,40.3,34.6,30.27,North,360,3.0,5.0,80,0.00,,,0.21,Wunderground v.1.15,2013-01-15 18:02:00,
2013-01-15 13:07:00,40.4,34.7,30.27,North,360,3.0,5.0,80,0.00,,,0.21,Wunderground v.1.15,2013-01-15 18:07:00,
2013-01-15 13:13:00,40.5,35.1,30.26,NNE,26,2.0,4.0,81,0.00,,,0.21,Wunderground v.1.15,2013-01-15 18:13:00,
2013-01-15 13:19:00,40.7,35.3,30.27,North,5,2.0,4.0,81,0.00,,,0.21,Wunderground v.1.15,2013-01-15 18:19:00,
2013-01-15 13:25:00,40.7,35.3,30.26,North,352,3.0,4.0,81,0.00,,,0.21,Wunderground v.1.15,2013-01-15 18:25:00,
2013-01-15 13:31:00,40.9,35.5,30.26,NW,316,2.0,7.0,81,0.00,,,0.21,Wunderground v.1.15,2013-01-15 18:31:00,
2013-01-15 13:36:00,40.8,35.1,30.26,North,1,3.0,7.0,80,0.00,,,0.21,Wunderground v.1.15,2013-01-15 18:36:00,
2013-01-15 13:42:00,40.9,35.2,30.26,NW,322,3.0,7.0,80,0.00,,,0.21,Wunderground v.1.15,2013-01-15 18:42:00,
2013-01-15 13:48:00,41.0,35.3,30.27,NNW,337,3.0,7.0,80,0.00,,,0.21,Wunderground v.1.15,2013-01-15 18:48:00,
2013-01-15 13:54:00,41.1,35.4,30.27,NW,320,3.0,7.0,80,0.00,,,0.21,Wunderground v.1.15,2013-01-15 18:54:00,
2013-01-15 14:00:00,41.3,35.6,30.27,North,2,2.0,3.0,80,0.00,,,0.21,Wunderground v.1.15,2013-01-15 19:00:00,
2013-01-15 14:06:00,41.3,35.3,30.27,North,360,3.0,5.0,79,0.00,,,0.21,Wunderground v.1.15,2013-01-15 19:06:00,
2013-01-15 14:12:00,41.1,35.1,30.27,NNE,25,3.0,4.0,79,0.00,,,0.21,Wunderground v.1.15,2013-01-15 19:12:00,
2013-01-15 14:18:00,41.1,35.1,30.27,NNW,347,3.0,4.0,79,0.00,,,0.21,Wunderground v.1.15,2013-01-15 19:18:00,
2013-01-15 14:24:00,41.1,35.4,30.27,NW,320,2.0,4.0,80,0.00,,,0.21,Wunderground v.1.15,2013-01-15 19:24:00,
2013-01-15 14:30:00,41.0,35.0,30.27,NNW,336,2.0,4.0,79,0.00,,,0.21,Wunderground v.1.15,2013-01-15 19:30:00,
2013-01-15 14:35:00,41.0,35.3,30.27,NW,316,3.0,6.0,80,0.00,,,0.21,Wunderground v.1.15,2013-01-15 19:35:00,
2013-01-15 14:40:00,40.9,34.9,30.27,North,5,3.0,3.0,79,0.00,,,0.21,Wunderground v.1.15,2013-01-15 19:40:00,
2013-01-15 14:46:00,40.8,34.8,30.27,North,1,3.0,6.0,79,0.00,,,0.21,Wunderground v.1.15,2013-01-15 19:46:00,
2013-01-15 14:52:00,40.9,35.2,30.26,NE,36,2.0,6.0,80,0.00,,,0.21,Wunderground v.1.15,2013-01-15 19:52:00,
2013-01-15 14:58:00,40.9,35.2,30.26,North,359,2.0,6.0,80,0.00,,,0.21,Wunderground v.1.15,2013-01-15 19:58:00,
2013-01-15 15:04:00,41.0,35.3,30.26,NNW,335,2.0,4.0,80,0.00,,,0.21,Wunderground v.1.15,2013-01-15 20:04:00,
2013-01-15 15:10:00,41.0,35.0,30.26,NE,34,3.0,3.0,79,0.00,,,0.21,Wunderground v.1.15,2013-01-15 20:10:00,
2013-01-15 15:15:00,41.0,35.0,30.26,NNW,348,3.0,4.0,79,0.00,,,0.21,Wunderground v.1.15,2013-01-15 20:15:00,
2013-01-15 15:21:00,41.0,35.0,30.26,North,1,3.0,3.0,79,0.00,,,0.21,Wunderground v.1.15,2013-01-15 20:21:00,
2013-01-15 15:27:00,41.0,35.0,30.26,NNW,328,2.0,3.0,79,0.00,,,0.21,Wunderground v.1.15,2013-01-15 20:27:00,
2013-01-15 15:33:00,41.0,35.0,30.26,WNW,298,1.0,7.0,79,0.00,,,0.21,Wunderground v.1.15,2013-01-15 20:33:00,
2013-01-15 15:39:00,41.0,35.3,30.26,NW,316,1.0,7.0,80,0.00,,,0.21,Wunderground v.1.15,2013-01-15 20:39:00,
2013-01-15 15:45:00,41.0,35.3,30.26,North,2,1.0,7.0,80,0.00,,,0.21,Wunderground v.1.15,2013-01-15 20:45:00,
2013-01-15 15:51:00,41.0,35.3,30.26,North,11,0.0,7.0,80,0.00,,,0.21,Wunderground v.1.15,2013-01-15 20:51:00,
2013-01-15 15:57:00,41.0,35.6,30.26,NNW,341,0.0,7.0,81,0.00,,,0.21,Wunderground v.1.15,2013-01-15 20:57:00,
2013-01-15 16:03:00,40.9,35.5,30.26,NNW,340,0.0,0.0,81,0.00,,,0.21,Wunderground v.1.15,2013-01-15 21:03:00,
2013-01-15 16:09:00,40.9,35.5,30.26,NNW,340,0.0,1.0,81,0.00,,,0.21,Wunderground v.1.15,2013-01-15 21:09:00,
2013-01-15 16:15:00,40.8,35.4,30.25,North,351,0.0,1.0,81,0.00,,,0.21,Wunderground v.1.15,2013-01-15 21:15:00,
2013-01-15 16:20:00,40.7,35.3,30.25,North,351,0.0,0.0,81,0.00,,,0.21,Wunderground v.1.15,2013-01-15 21:20:00,
2013-01-15 16:25:00,40.6,35.5,30.24,North,351,0.0,1.0,82,0.00,,,0.21,Wunderground v.1.15,2013-01-15 21:25:00,
2013-01-15 16:31:00,40.5,35.4,30.24,North,351,0.0,4.0,82,0.00,,,0.21,Wunderground v.1.15,2013-01-15 21:31:00,
2013-01-15 16:37:00,40.2,35.4,30.25,North,351,0.0,4.0,83,0.00,,,0.21,Wunderground v.1.15,2013-01-15 21:37:00,
2013-01-15 16:43:00,40.0,35.3,30.26,North,351,0.0,4.0,83,0.00,,,0.21,Wunderground v.1.15,2013-01-15 21:43:00,
2013-01-15 16:49:00,39.8,35.1,30.25,North,351,0.0,4.0,83,0.00,,,0.21,Wunderground v.1.15,2013-01-15 21:49:00,
2013-01-15 16:55:00,39.6,35.2,30.26,North,351,0.0,4.0,84,0.00,,,0.21,Wunderground v.1.15,2013-01-15 21:55:00,
2013-01-15 17:00:00,39.4,35.3,30.26,North,351,0.0,0.0,85,0.00,,,0.21,Wunderground v.1.15,2013-01-15 22:00:00,
2013-01-15 17:06:00,39.1,35.3,30.27,NNW,342,0.0,1.0,86,0.00,,,0.21,Wunderground v.1.15,2013-01-15 22:06:00,
2013-01-15 17:12:00,39.1,35.0,30.27,NNW,342,0.0,1.0,85,0.00,,,0.21,Wunderground v.1.15,2013-01-15 22:12:00,
2013-01-15 17:18:00,39.0,35.2,30.27,NNW,342,0.0,1.0,86,0.00,,,0.21,Wunderground v.1.15,2013-01-15 22:18:00,
2013-01-15 17:24:00,38.7,35.2,30.28,NNW,342,0.0,0.0,87,0.00,,,0.21,Wunderground v.1.15,2013-01-15 22:24:00,
2013-01-15 17:30:00,38.5,35.0,30.27,NNW,342,0.0,0.0,87,0.00,,,0.21,Wunderground v.1.15,2013-01-15 22:30:00,
2013-01-15 17:36:00,38.4,34.9,30.27,NNW,342,0.0,1.0,87,0.00,,,0.21,Wunderground v.1.15,2013-01-15 22:36:00,
2013-01-15 17:41:00,38.5,35.3,30.27,NNW,329,0.0,1.0,88,0.00,,,0.21,Wunderground v.1.15,2013-01-15 22:41:00,
2013-01-15 17:47:00,38.5,35.0,30.27,NNW,330,0.0,2.0,87,0.00,,,0.21,Wunderground v.1.15,2013-01-15 22:47:00,
2013-01-15 17:53:00,38.3,34.8,30.28,NNW,330,0.0,1.0,87,0.00,,,0.21,Wunderground v.1.15,2013-01-15 22:53:00,
2013-01-15 17:59:00,38.2,34.7,30.28,NNW,346,0.0,2.0,87,0.00,,,0.21,Wunderground v.1.15,2013-01-15 22:59:00,
2013-01-15 18:05:00,38.1,34.6,30.27,NNW,346,0.0,1.0,87,0.00,,,0.21,Wunderground v.1.15,2013-01-15 23:05:00,
2013-01-15 18:11:00,37.9,34.4,30.27,NNW,346,0.0,1.0,87,0.00,,,0.21,Wunderground v.1.15,2013-01-15 23:11:00,
2013-01-15 18:17:00,37.7,34.5,30.28,NNW,346,0.0,1.0,88,0.00,,,0.21,Wunderground v.1.15,2013-01-15 23:17:00,
2013-01-15 18:23:00,37.5,34.3,30.28,NNW,346,0.0,1.0,88,0.00,,,0.21,Wunderground v.1.15,2013-01-15 23:23:00,
2013-01-15 18:28:00,37.3,34.1,30.28,NNW,346,0.0,1.0,88,0.00,,,0.21,Wunderground v.1.15,2013-01-15 23:28:00,
2013-01-15 18:34:00,37.0,33.8,30.28,NNW,346,0.0,2.0,88,0.00,,,0.21,Wunderground v.1.15,2013-01-15 23:34:00,
2013-01-15 18:40:00,36.8,33.9,30.28,NNW,329,0.0,2.0,89,0.00,,,0.21,Wunderground v.1.15,2013-01-15 23:40:00,
2013-01-15 18:46:00,36.8,34.1,30.28,NNW,329,0.0,2.0,90,0.00,,,0.21,Wunderground v.1.15,2013-01-15 23:46:00,
2013-01-15 18:52:00,36.9,34.2,30.28,NNW,329,0.0,2.0,90,0.00,,,0.21,Wunderground v.1.15,2013-01-15 23:52:00,
2013-01-15 18:58:00,36.8,34.1,30.26,NNW,329,0.0,2.0,90,0.00,,,0.21,Wunderground v.1.15,2013-01-15 23:58:00,
2013-01-15 19:04:00,36.8,34.1,30.28,WNW,295,1.0,2.0,90,0.00,,,0.21,Wunderground v.1.15,2013-01-16 00:04:00,
2013-01-15 19:09:00,36.8,34.1,30.27,WNW,295,1.0,2.0,90,0.00,,,0.21,Wunderground v.1.15,2013-01-16 00:09:00,
2013-01-15 19:15:00,36.7,34.0,30.28,WNW,295,0.0,1.0,90,0.00,,,0.21,Wunderground v.1.15,2013-01-16 00:15:00,
2013-01-15 19:21:00,36.5,33.8,30.27,WNW,295,0.0,0.0,90,0.00,,,0.21,Wunderground v.1.15,2013-01-16 00:21:00,
2013-01-15 19:27:00,36.4,34.0,30.28,WNW,295,0.0,1.0,91,0.00,,,0.21,Wunderground v.1.15,2013-01-16 00:27:00,
2013-01-15 19:33:00,36.3,33.6,30.27,WNW,295,0.0,2.0,90,0.00,,,0.21,Wunderground v.1.15,2013-01-16 00:33:00,
2013-01-15 19:39:00,36.1,33.7,30.26,WNW,295,0.0,2.0,91,0.00,,,0.21,Wunderground v.1.15,2013-01-16 00:39:00,
2013-01-15 19:45:00,36.0,33.6,30.25,WNW,295,0.0,2.0,91,0.00,,,0.21,Wunderground v.1.15,2013-01-16 00:45:00,
2013-01-15 19:50:00,35.8,33.4,30.25,WNW,298,0.0,2.0,91,0.00,,,0.21,Wunderground v.1.15,2013-01-16 00:50:00,
2013-01-15 19:56:00,35.8,33.4,30.25,NW,311,0.0,2.0,91,0.00,,,0.21,Wunderground v.1.15,2013-01-16 00:56:00,
2013-01-15 20:02:00,36.1,33.7,30.26,NNE,20,1.0,2.0,91,0.00,,,0.21,Wunderground v.1.15,2013-01-16 01:02:00,
2013-01-15 20:08:00,36.6,33.9,30.26,North,359,1.0,2.0,90,0.00,,,0.21,Wunderground v.1.15,2013-01-16 01:08:00,
2013-01-15 20:14:00,37.1,34.2,30.27,NNW,337,1.0,2.0,89,0.00,,,0.21,Wunderground v.1.15,2013-01-16 01:14:00,
2013-01-15 20:20:00,37.6,34.4,30.27,North,1,1.0,2.0,88,0.00,,,0.21,Wunderground v.1.15,2013-01-16 01:20:00,
2013-01-15 20:26:00,38.0,34.5,30.28,North,6,1.0,2.0,87,0.00,,,0.21,Wunderground v.1.15,2013-01-16 01:26:00,
2013-01-15 20:32:00,38.4,34.6,30.28,North,352,2.0,2.0,86,0.00,,,0.21,Wunderground v.1.15,2013-01-16 01:32:00,
2013-01-15 20:38:00,38.7,34.3,30.27,North,360,2.0,3.0,84,0.00,,,0.21,Wunderground v.1.15,2013-01-16 01:38:00,
2013-01-15 20:44:00,38.8,34.1,30.28,WNW,293,2.0,4.0,83,0.00,,,0.21,Wunderground v.1.15,2013-01-16 01:44:00,
2013-01-15 20:49:00,39.0,34.3,30.28,North,1,2.0,4.0,83,0.00,,,0.21,Wunderground v.1.15,2013-01-16 01:49:00,
2013-01-15 20:55:00,39.0,34.0,30.26,NNE,20,1.0,2.0,82,0.00,,,0.21,Wunderground v.1.15,2013-01-16 01:55:00,
2013-01-15 21:00:00,39.0,34.0,30.26,NE,42,1.0,2.0,82,0.00,,,0.21,Wunderground v.1.15,2013-01-16 02:00:00,
2013-01-15 21:06:00,39.0,34.0,30.26,NNE,14,1.0,2.0,82,0.00,,,0.21,Wunderground v.1.15,2013-01-16 02:06:00,
2013-01-15 21:12:00,39.0,34.0,30.26,NNE,16,1.0,1.0,82,0.00,,,0.21,Wunderground v.1.15,2013-01-16 02:12:00,
2013-01-15 21:18:00,38.9,33.6,30.27,North,360,1.0,1.0,81,0.00,,,0.21,Wunderground v.1.15,2013-01-16 02:18:00,
2013-01-15 21:24:00,38.9,33.3,30.27,North,360,1.0,1.0,80,0.00,,,0.21,Wunderground v.1.15,2013-01-16 02:24:00,
2013-01-15 21:30:00,39.0,33.4,30.26,North,11,1.0,1.0,80,0.00,,,0.21,Wunderground v.1.15,2013-01-16 02:30:00,
2013-01-15 21:35:00,39.0,33.0,30.26,NW,325,1.0,6.0,79,0.00,,,0.21,Wunderground v.1.15,2013-01-16 02:35:00,
2013-01-15 21:41:00,39.1,33.1,30.26,NNW,339,1.0,6.0,79,0.00,,,0.21,Wunderground v.1.15,2013-01-16 02:41:00,
2013-01-15 21:47:00,39.1,33.1,30.26,NE,37,1.0,6.0,79,0.00,,,0.21,Wunderground v.1.15,2013-01-16 02:47:00,
2013-01-15 21:53:00,39.1,33.5,30.25,NNE,15,1.0,6.0,80,0.00,,,0.21,Wunderground v.1.15,2013-01-16 02:53:00,
2013-01-15 21:59:00,39.0,33.0,30.26,NNE,30,1.0,6.0,79,0.00,,,0.21,Wunderground v.1.15,2013-01-16 02:59:00,
2013-01-15 22:05:00,39.0,33.0,30.26,NNE,27,1.0,3.0,79,0.00,,,0.21,Wunderground v.1.15,2013-01-16 03:05:00,
2013-01-15 22:11:00,39.0,32.7,30.27,North,2,1.0,1.0,78,0.00,,,0.21,Wunderground v.1.15,2013-01-16 03:11:00,
2013-01-15 22:16:00,39.1,32.8,30.26,North,359,1.0,2.0,78,0.00,,,0.21,Wunderground v.1.15,2013-01-16 03:16:00,
2013-01-15 22:22:00,39.1,32.8,30.26,North,359,1.0,1.0,78,0.00,,,0.21,Wunderground v.1.15,2013-01-16 03:22:00,
2013-01-15 22:28:00,39.0,32.4,30.26,North,356,1.0,1.0,77,0.00,,,0.21,Wunderground v.1.15,2013-01-16 03:28:00,
2013-01-15 22:34:00,39.0,32.1,30.27,North,356,0.0,4.0,76,0.00,,,0.21,Wunderground v.1.15,2013-01-16 03:34:00,
2013-01-15 22:40:00,39.1,32.5,30.27,NNE,27,1.0,1.0,77,0.00,,,0.21,Wunderground v.1.15,2013-01-16 03:40:00,
2013-01-15 22:46:00,39.0,32.1,30.27,North,1,1.0,4.0,76,0.00,,,0.21,Wunderground v.1.15,2013-01-16 03:46:00,
2013-01-15 22:52:00,39.0,32.1,30.27,NNE,13,1.0,4.0,76,0.00,,,0.21,Wunderground v.1.15,2013-01-16 03:52:00,
2013-01-15 22:57:00,39.0,32.1,30.26,NE,41,1.0,4.0,76,0.00,,,0.21,Wunderground v.1.15,2013-01-16 03:57:00,
2013-01-15 23:03:00,39.0,32.1,30.26,NE,40,1.0,1.0,76,0.00,,,0.21,Wunderground v.1.15,2013-01-16 04:03:00,
2013-01-15 23:09:00,38.9,31.6,30.25,NNE,13,0.0,2.0,75,0.00,,,0.21,Wunderground v.1.15,2013-01-16 04:09:00,
2013-01-15 23:15:00,38.9,32.0,30.25,NNE,15,1.0,1.0,76,0.00,,,0.21,Wunderground v.1.15,2013-01-16 04:15:00,
2013-01-15 23:21:00,39.0,31.7,30.25,NNE,16,1.0,1.0,75,0.00,,,0.21,Wunderground v.1.15,2013-01-16 04:21:00,
2013-01-15 23:27:00,38.9,32.3,30.24,NNE,17,0.0,1.0,77,0.00,,,0.21,Wunderground v.1.15,2013-01-16 04:27:00,
2013-01-15 23:33:00,38.9,32.0,30.24,North,351,0.0,3.0,76,0.00,,,0.21,Wunderground v.1.15,2013-01-16 04:33:00,
2013-01-15 23:38:00,38.9,32.0,30.24,North,359,1.0,3.0,76,0.00,,,0.21,Wunderground v.1.15,2013-01-16 04:38:00,
2013-01-15 23:44:00,38.9,32.0,30.24,North,359,1.0,3.0,76,0.00,,,0.21,Wunderground v.1.15,2013-01-16 04:44:00,
2013-01-15 23:50:00,38.9,32.3,30.24,NNE,12,0.0,3.0,77,0.00,,,0.21,Wunderground v.1.15,2013-01-16 04:50:00,
2013-01-15 23:56:00,38.9,32.3,30.24,NNE,12,0.0,3.0,77,0.00,,,0.21,Wunderground v.1.15,2013-01-16 04:56:00,